[[{"header":{"parameterUnit":"m.s-1","parameterCategory":2,"la1":30.2991,"la2":30.254,"lo1":-89.0895,"lo2":-89.0444,"dy":0.0017,"dx":0.0017,"nx":28,"ny":28,"refTime":"2025-08-29T21:00:00:Z","depth":"0","parameterNumber":2,"parameterNumberName":"U-component_of_CURRENTS"},"data":[0,0,0,0,0,0,0,0,0,0,0,0,0,0,0,0,0,0,0,0,0,0,0,0,0,0,0,0,0,0,0,0,0,0,0,0,0,0,0,0,0,0,0,0,0,0,0,0,0,0,0,0,0,0,0,0,0,0,0.2439,0.2439,0,0.2454,0.2455,0.2455,0.2448,0.2447,0.2447,0.2447,0.2437,0.2437,0.2436,0,0,0,0,0,0,0,0,0,0,0,0,0,0.2444,0.2444,0.2439,0.2439,0.244,0.2454,0.2455,0.2455,0.2448,0.2447,0.2447,0.2447,0.2437,0.2437,0.2436,0,0,0,0,0,0,0,0,0,0,0,0,0,0.2447,0.2444,0.2439,0.2439,0.244,0.2454,0.2455,0.2455,0.2448,0.2447,0.2447,0.2447,0.2437,0.2437,0.2436,0.2443,0,0,0.2436,0.2436,0,0,0,0,0,0,0,0,0.2447,0.2447,0.2439,0.2439,0.244,0.245,0.2453,0.245,0.2448,0.2443,0.2447,0.2446,0.244,0.244,0.2441,0.2443,0.2442,0.2436,0.2436,0.2436,0.2436,0,0,0,0,0,0,0,0.2447,0.2447,0.2444,0.2439,0.244,0.2453,0.2452,0.2452,0.2442,0.2443,0.2443,0.2448,0.244,0.2442,0.2441,0.2442,0.2436,0.2436,0.2436,0.2436,0.2468,0.2469,0,0,0,0,0,0,0.2446,0.2446,0.2443,0.2444,0.2444,0.2453,0.2452,0.2446,0.2442,0.2442,0.2448,0.2447,0.2442,0.2441,0.2441,0.2469,0.2436,0.2436,0.2436,0.2467,0.2468,0.2469,0,0,0,0,0,0,0.2446,0.2446,0.2443,0.2448,0.2448,0.2453,0.2446,0.2446,0.2451,0.2446,0.2445,0.2453,0.2442,0.2441,0.2444,0.2467,0.2436,0.2436,0.2466,0.2467,0.2469,0.2511,0,0,0,0,0,0,0.2446,0.2445,0.2442,0.2447,0.2448,0.2455,0.2447,0.2447,0.2455,0.2454,0.245,0.2448,0.2441,0.2444,0.2444,0.2467,0.2436,0.2465,0.2467,0.2468,0.2509,0.2514,0.2518,0,0,0,0,0,0.2446,0.2444,0.2442,0.2442,0.2443,0.2456,0.2457,0.2459,0.2455,0.2461,0.2457,0.2449,0.2455,0.2445,0.2444,0.2467,0.2464,0.2466,0.2468,0.2506,0.2513,0.2518,0,0,0,0,0,0,0.2443,0.2444,0.2441,0.2438,0.2448,0.2455,0.2461,0.2463,0.2465,0.2463,0.2455,0.2453,0.247,0.246,0.2449,0.2482,0.2461,0.2463,0.249,0.2496,0.2501,0.2519,0.2436,0,0,0,0,0,0.2442,0.2441,0.2446,0.2446,0.245,0.2456,0.2462,0.2465,0.2468,0.2469,0.2466,0.2467,0.2479,0.2479,0.2484,0.2495,0.252,0.2511,0.2516,0.252,0.2536,0.2596,0.2609,0.2476,0.2476,0.2476,0,0,0.2443,0.2442,0.2442,0.2446,0.2451,0.2464,0.2458,0.247,0.2485,0.2467,0.2481,0.2484,0.2486,0.2504,0.2511,0.2497,0.257,0.2523,0.2526,0.254,0.26,0.2613,0.2625,0.2477,0.2477,0.2477,0,0,0.2445,0.2441,0.2442,0.2453,0.2465,0.2472,0.2477,0.2487,0.2494,0.2507,0.2507,0.2525,0.2525,0.2543,0.255,0.2584,0.2597,0.2581,0.2618,0.2676,0.2688,0.2699,0.2747,0.2761,0.258,0.258,0.258,0,0.2446,0.244,0.2447,0.2455,0.2465,0.2477,0.2487,0.2504,0.2515,0.2529,0.2515,0.2555,0.2551,0.2597,0.2607,0.2598,0.2629,0.2594,0.2684,0.2695,0.2706,0.2752,0.2768,0.2582,0.2582,0.2582,0.2582,0,0.245,0.245,0.2455,0.2466,0.2483,0.2493,0.2518,0.2537,0.2545,0.2562,0.2605,0.2612,0.2638,0.2642,0.2632,0.2705,0.2703,0.2687,0.2672,0.2722,0.2767,0.2783,0.2586,0.2585,0.2584,0.2584,0,0,0.2432,0.2451,0.2451,0.246,0.2487,0.2501,0.2537,0.257,0.2608,0.2625,0.2672,0.2698,0.2711,0.2722,0.2725,0.2771,0.2863,0.276,0.2762,0.2813,0.2996,0.2955,0.2968,0.2866,0.2869,0.2872,0.2998,0,0.2427,0.2437,0.2452,0.2475,0.2483,0.2516,0.2553,0.2594,0.263,0.2682,0.2716,0.2759,0.2741,0.2761,0.2809,0.2849,0.2907,0.283,0.2936,0.2939,0.2902,0.2986,0.2801,0.2895,0.3014,0.3016,0.3018,0,0.2414,0.2424,0.2436,0.2476,0.2485,0.2509,0.2575,0.2613,0.2696,0.2731,0.2791,0.2817,0.289,0.2866,0.2983,0.2936,0.2977,0.3007,0.3013,0.2974,0.2929,0.2864,0.2919,0.2815,0.3042,0.304,0.3038,0,0.2386,0.2411,0.2417,0.2431,0.2483,0.2505,0.254,0.2621,0.2674,0.277,0.2817,0.2902,0.2956,0.3021,0.3078,0.304,0.3213,0.3162,0.3172,0.3169,0.3033,0.3013,0.3002,0.3268,0.3268,0.3268,0.3267,0,0.2366,0.2374,0.2404,0.2414,0.2446,0.2488,0.2551,0.2607,0.2705,0.2782,0.2838,0.2926,0.3002,0.3096,0.3128,0.3211,0.3259,0.321,0.3213,0.304,0.3021,0.2938,0.2894,0.3272,0.3271,0.3271,0.327,0,0.2339,0.2351,0.237,0.2416,0.2431,0.246,0.2552,0.2609,0.2695,0.2801,0.2833,0.2974,0.3096,0.3166,0.3295,0.328,0.3249,0.3371,0.3161,0.3137,0.3002,0.2967,0.2913,0.2831,0.3386,0.3386,0.3386,0,0.2326,0.2327,0.2369,0.2389,0.2409,0.2459,0.2502,0.2596,0.2662,0.2836,0.2885,0.3039,0.3141,0.3306,0.3323,0.3384,0.3277,0.3238,0.3126,0.3,0.2964,0.286,0.2786,0.2962,0.2959,0.2956,0.2953,0,0.2311,0.2323,0.2347,0.2381,0.2415,0.2464,0.2526,0.2574,0.2695,0.278,0.2927,0.3023,0.3179,0.3174,0.3248,0.3252,0.3037,0.3181,0.3102,0.2688,0.2523,0.244,0.2877,0.2928,0.293,0.2932,0.2934,0.2935,0.2304,0.2317,0.2344,0.2375,0.2418,0.2452,0.2463,0.254,0.2624,0.2714,0.2878,0.295,0.2979,0.3058,0.3059,0.2887,0.292,0.2738,0.2728,0.2652,0.2496,0.2885,0.2905,0.2907,0.2909,0.2911,0.2913,0,0.2275,0.2296,0.2335,0.236,0.2381,0.2415,0.2466,0.2453,0.2497,0.2616,0.2709,0.2703,0.267,0.2671,0.2549,0.2429,0.2313,0.2336,0.212,0.2089,0.2473,0.2375,0.2216,0.2216,0.2216,0.2216,0.2216,0.2216,0.2261,0.227,0.2288,0.2302,0.2321,0.2294,0.2295,0.2288,0.2332,0.233,0.2319,0.2368,0.2376,0.2277,0.211,0.2053,0.1888,0.1778,0.1838,0.2066,0.2101,0.2134,0.2031,0.1803,0.1803,0.1315,0.1312,0.1309]},{"header":{"parameterUnit":"m.s-1","parameterCategory":2,"la1":30.2991,"la2":30.254,"lo1":-89.0895,"lo2":-89.0444,"dy":0.0017,"dx":0.0017,"nx":28,"ny":28,"refTime":"2025-08-29T21:00:00:Z","depth":"0","parameterNumber":3,"parameterNumberName":"V-component_of_CURRENTS"},"data":[0,0,0,0,0,0,0,0,0,0,0,0,0,0,0,0,0,0,0,0,0,0,0,0,0,0,0,0,0,0,0,0,0,0,0,0,0,0,0,0,0,0,0,0,0,0,0,0,0,0,0,0,0,0,0,0,0,0,0.0033,0.0032,0,-0.001,-0.0011,-0.0011,-0.005,-0.0051,-0.0051,-0.0051,-0.0098,-0.0099,-0.01,0,0,0,0,0,0,0,0,0,0,0,0,0,0.0059,0.0058,0.0033,0.0032,0.0032,-0.001,-0.0011,-0.0011,-0.005,-0.0051,-0.0051,-0.0052,-0.0098,-0.0099,-0.01,0,0,0,0,0,0,0,0,0,0,0,0,0,0.0034,0.0058,0.0033,0.0008,0.0005,-0.001,-0.0011,-0.0011,-0.005,-0.0051,-0.0051,-0.0052,-0.0098,-0.0099,-0.01,-0.0097,0,0,-0.0104,-0.0105,0,0,0,0,0,0,0,0,0.0035,0.0033,0.0012,0.001,0.0007,-0.0025,-0.0019,-0.004,-0.005,-0.003,-0.0052,-0.0052,-0.0073,-0.0076,-0.0085,-0.0099,-0.0101,-0.0105,-0.0105,-0.0106,-0.0106,0,0,0,0,0,0,0,0.0037,0.0034,0.0015,0.0012,0.0008,-0.0008,-0.0012,-0.0023,-0.0049,-0.0032,-0.0035,-0.0038,-0.0075,-0.0083,-0.0086,-0.0102,-0.0104,-0.0106,-0.0106,-0.0107,-0.0114,-0.0114,0,0,0,0,0,0,0.0046,0.0036,0.0016,0.0013,0.0021,-0.0008,-0.0013,-0.0015,-0.0049,-0.0054,-0.0037,-0.0039,-0.0081,-0.0084,-0.0088,-0.0076,-0.0106,-0.0107,-0.0108,-0.0115,-0.0114,-0.0113,0,0,0,0,0,0,0.0047,0.0045,0.0018,0.0025,0.002,-0.0008,-0.001,-0.0015,-0.0022,-0.0052,-0.0058,-0.0038,-0.0081,-0.0086,-0.0093,-0.0078,-0.0108,-0.0109,-0.0116,-0.0115,-0.0114,-0.0058,0,0,0,0,0,0,0.0048,0.0045,0.0046,0.0025,0.002,0.0019,-0.0009,-0.0016,-0.0023,-0.0026,-0.0055,-0.006,-0.0082,-0.0091,-0.0094,-0.0081,-0.011,-0.0116,-0.0115,-0.0114,-0.0061,-0.0055,-0.0051,0,0,0,0,0,0.0049,0.0058,0.0047,0.0044,0.0022,0.002,0.0016,-0.0007,-0.0022,-0.0017,-0.004,-0.0059,-0.0086,-0.0091,-0.0096,-0.0082,-0.0117,-0.0115,-0.0114,-0.0063,-0.0057,-0.0051,0,0,0,0,0,0,0.007,0.0054,0.0041,0.0044,0.0036,0.0013,0.0014,-0.0001,-0.0016,-0.0021,-0.0052,-0.0058,-0.006,-0.0077,-0.0082,-0.0081,-0.0104,-0.0104,-0.0064,-0.0058,-0.0053,-0.0042,-0.0111,0,0,0,0,0,0.0076,0.0076,0.006,0.0063,0.0061,0.0038,0.0033,0.002,0.0004,-0.0004,-0.0024,-0.0044,-0.0057,-0.0062,-0.0078,-0.0074,-0.0083,-0.0068,-0.0063,-0.0059,-0.0053,-0.006,-0.0055,-0.0109,-0.0109,-0.0109,0,0,0.0083,0.0075,0.0075,0.0067,0.0056,0.0064,0.0033,0.0032,0.0038,-0.0005,-0.0005,-0.0028,-0.0053,-0.0053,-0.0054,-0.0065,-0.0045,-0.0057,-0.0053,-0.0049,-0.0058,-0.0053,-0.0048,-0.0108,-0.0108,-0.0108,0,0,0.0108,0.0094,0.0106,0.0104,0.0095,0.0084,0.0088,0.0071,0.0062,0.006,0.003,0.0017,-0.0002,-0.0016,-0.0026,-0.0001,-0.002,-0.0006,0.0031,0.0024,0.0028,0.0032,0.0046,0.005,-0.0001,-0.0001,-0.0001,0,0.0117,0.013,0.011,0.0124,0.0127,0.0099,0.0117,0.0108,0.009,0.0088,0.0069,0.004,0.0017,0.0019,0.0024,0.0011,0.0009,0.0011,0.0031,0.0034,0.0037,0.005,0.0054,0.0002,0.0002,0.0001,0.0001,0,0.0153,0.0162,0.0171,0.0178,0.018,0.0191,0.0178,0.0177,0.016,0.0147,0.014,0.0106,0.0089,0.0081,0.0059,0.0071,0.0065,0.0037,0.0018,0.0046,0.0058,0.0061,0.0006,0.0005,0.0004,0.0003,0,0,0.0179,0.0193,0.0198,0.0212,0.021,0.0219,0.0229,0.0233,0.0245,0.0216,0.0227,0.0195,0.0169,0.0156,0.0126,0.0119,0.014,0.0092,0.009,0.011,0.0143,0.0136,0.0139,0.0114,0.0114,0.0115,0.015,0,0.0214,0.0254,0.025,0.0289,0.0308,0.029,0.0304,0.03,0.0292,0.0295,0.0253,0.0248,0.02,0.0193,0.0178,0.0149,0.0148,0.0134,0.0109,0.0109,0.0102,0.0142,0.0152,0.0183,0.0153,0.0153,0.0154,0,0.0253,0.0276,0.0319,0.0346,0.0353,0.0368,0.0388,0.0398,0.039,0.0381,0.0362,0.0327,0.0311,0.0261,0.0231,0.0224,0.0192,0.0165,0.0165,0.014,0.0108,0.0145,0.019,0.0091,0.0158,0.0158,0.0158,0,0.0287,0.0326,0.0363,0.0372,0.0394,0.0408,0.042,0.0423,0.0446,0.0438,0.0448,0.041,0.0409,0.0349,0.0291,0.0262,0.0264,0.0214,0.0181,0.0181,0.0174,0.0173,0.0122,0.0195,0.0195,0.0195,0.0195,0,0.0328,0.0359,0.0381,0.0402,0.0451,0.0447,0.0496,0.0499,0.0516,0.0562,0.0495,0.0527,0.0431,0.0412,0.0333,0.0285,0.0298,0.0203,0.019,0.0196,0.0196,0.0096,0.0025,0.0196,0.0196,0.0196,0.0195,0,0.0361,0.0373,0.0421,0.0453,0.0467,0.0502,0.0553,0.0589,0.0592,0.0651,0.065,0.0636,0.0621,0.0527,0.0461,0.0363,0.0243,0.0274,0.0299,0.0288,0.0135,0.0067,0.0011,-0.0032,0.0234,0.0234,0.0234,0,0.0383,0.0409,0.0462,0.0497,0.0515,0.0566,0.0603,0.0625,0.0673,0.0731,0.0767,0.0769,0.0793,0.069,0.0538,0.0414,0.0292,0.0305,0.0234,0.0143,0.0058,0.0014,-0.0022,0.026,0.026,0.026,0.026,0,0.0432,0.0445,0.0486,0.0551,0.0598,0.0661,0.0718,0.0768,0.0811,0.0873,0.0966,0.0992,0.0906,0.0805,0.0614,0.0497,0.0226,0.0303,0.0199,0.0071,0.003,-0.0023,0.0231,0.0262,0.0262,0.0262,0.0262,0.0262,0.0469,0.0503,0.055,0.0611,0.067,0.0742,0.0798,0.088,0.0978,0.1093,0.1129,0.1222,0.1028,0.0784,0.0606,0.0274,0.0263,0.0152,0.0082,0.005,-0.0011,0.0256,0.0269,0.0269,0.0269,0.0269,0.0268,0,0.051,0.0545,0.0608,0.0677,0.0744,0.0765,0.0866,0.0936,0.1067,0.1231,0.1339,0.1338,0.1077,0.0783,0.0332,0.0094,-0.0002,-0.0044,-0.0113,-0.0138,0.0099,0.0079,0.0063,0.0063,0.0063,0.0063,0.0063,0.0064,0.0536,0.059,0.0613,0.0718,0.0771,0.0857,0.0915,0.1039,0.1175,0.1379,0.1495,0.1564,0.1307,0.0519,-0.001,-0.0134,-0.0302,-0.033,-0.0414,-0.0271,-0.0258,-0.0246,-0.0281,-0.0373,-0.0373,-0.061,-0.0613,-0.0615]}],[{"header":{"parameterUnit":"m.s-1","parameterCategory":2,"la1":30.2991,"la2":30.254,"lo1":-89.0895,"lo2":-89.0444,"dy":0.0017,"dx":0.0017,"nx":28,"ny":28,"refTime":"2025-08-29T21:00:00:Z","depth":"2","parameterNumber":2,"parameterNumberName":"U-component_of_CURRENTS"},"data":[0,0,0,0,0,0,0,0,0,0,0,0,0,0,0,0,0,0,0,0,0,0,0,0,0,0,0,0,0,0,0,0,0,0,0,0,0,0,0,0,0,0,0,0,0,0,0,0,0,0,0,0,0,0,0,0,0,0,0.1892,0.1892,0,0.1921,0.1921,0.1922,0.1943,0.1943,0.1944,0.1944,0.1967,0.1967,0.1968,0,0,0,0,0,0,0,0,0,0,0,0,0,0.1871,0.1871,0.1892,0.1892,0.1893,0.1921,0.1921,0.1922,0.1943,0.1943,0.1944,0.1944,0.1967,0.1967,0.1968,0,0,0,0,0,0,0,0,0,0,0,0,0,0.1887,0.1871,0.1892,0.1907,0.1909,0.1921,0.1921,0.1922,0.1943,0.1943,0.1944,0.1944,0.1967,0.1967,0.1968,0.1965,0,0,0.197,0.197,0,0,0,0,0,0,0,0,0.1886,0.1888,0.1904,0.1906,0.1908,0.1929,0.1922,0.1936,0.1943,0.193,0.1944,0.1944,0.1954,0.1955,0.196,0.1966,0.1967,0.197,0.197,0.197,0.1971,0,0,0,0,0,0,0,0.1885,0.1887,0.1903,0.1905,0.1907,0.1918,0.192,0.1925,0.1939,0.1931,0.1933,0.1936,0.1955,0.1959,0.196,0.1968,0.197,0.197,0.1971,0.1971,0.2008,0.2009,0,0,0,0,0,0,0.1881,0.1886,0.1902,0.1904,0.1898,0.1918,0.1921,0.1922,0.1939,0.1942,0.1936,0.1937,0.1958,0.196,0.1961,0.2004,0.197,0.1971,0.1971,0.2008,0.2008,0.2009,0,0,0,0,0,0,0.188,0.1882,0.1901,0.1896,0.1899,0.1918,0.1919,0.1922,0.1935,0.1943,0.1946,0.1946,0.1958,0.196,0.1973,0.2003,0.1971,0.1972,0.2007,0.2008,0.2009,0.2061,0,0,0,0,0,0,0.1879,0.1881,0.1884,0.1896,0.1899,0.1912,0.1919,0.1922,0.1936,0.1938,0.1953,0.1955,0.1959,0.1972,0.1974,0.2004,0.1972,0.2006,0.2007,0.2008,0.2058,0.2063,0.2068,0,0,0,0,0,0.1879,0.1886,0.1884,0.1886,0.1901,0.1912,0.1916,0.1929,0.1936,0.1942,0.1953,0.1955,0.1981,0.1973,0.1975,0.2006,0.2006,0.2007,0.2008,0.2056,0.2062,0.2068,0,0,0,0,0,0,0.1881,0.1889,0.1887,0.1896,0.1903,0.1916,0.1928,0.1933,0.1946,0.1954,0.1958,0.1961,0.1989,0.1981,0.1972,0.2018,0.1995,0.1997,0.2031,0.2037,0.2041,0.2042,0.1973,0,0,0,0,0,0.1879,0.1888,0.1892,0.1901,0.1905,0.1915,0.1923,0.1932,0.1944,0.1951,0.1966,0.1978,0.1994,0.2002,0.2014,0.2031,0.204,0.2052,0.2057,0.2061,0.2061,0.2111,0.2121,0.2014,0.2014,0.2014,0,0,0.188,0.1889,0.1892,0.1902,0.1911,0.1922,0.1922,0.1939,0.1952,0.1951,0.1982,0.1998,0.2002,0.2031,0.2043,0.2029,0.2095,0.2063,0.2066,0.2064,0.2114,0.2124,0.2134,0.2015,0.2014,0.2014,0,0,0.1891,0.1896,0.1904,0.1912,0.1928,0.1936,0.194,0.196,0.1972,0.1993,0.2005,0.2032,0.2051,0.2068,0.2075,0.2107,0.2121,0.2117,0.2141,0.219,0.22,0.2208,0.2231,0.2242,0.2117,0.2117,0.2117,0,0.1892,0.1898,0.1909,0.1922,0.1931,0.1942,0.1952,0.1966,0.199,0.2017,0.2008,0.2067,0.2069,0.211,0.2123,0.212,0.2144,0.2122,0.2198,0.2207,0.2215,0.2236,0.2247,0.2119,0.2119,0.2119,0.2119,0,0.1902,0.1911,0.1921,0.1938,0.1953,0.1964,0.1982,0.201,0.2029,0.2056,0.2106,0.2109,0.2146,0.2155,0.2146,0.2209,0.2206,0.2204,0.2188,0.2229,0.2249,0.2259,0.2123,0.2122,0.2121,0.2121,0,0,0.1888,0.1918,0.1921,0.1931,0.196,0.1973,0.201,0.2049,0.2082,0.2118,0.2159,0.2194,0.2215,0.2222,0.2223,0.2256,0.2326,0.2256,0.2257,0.2285,0.243,0.2366,0.2371,0.2352,0.2354,0.2355,0.2421,0,0.1886,0.1907,0.1927,0.1952,0.1962,0.1995,0.2026,0.2076,0.2111,0.2158,0.2192,0.2231,0.2233,0.2249,0.2289,0.2319,0.2356,0.2308,0.238,0.2381,0.2325,0.2382,0.218,0.2217,0.2431,0.2432,0.2434,0,0.1881,0.1898,0.1916,0.1958,0.1966,0.199,0.2051,0.2079,0.2158,0.2196,0.2259,0.228,0.234,0.2317,0.2414,0.239,0.2416,0.2432,0.2435,0.2363,0.2336,0.221,0.2227,0.2451,0.2449,0.2448,0.2447,0,0.1856,0.189,0.1903,0.1915,0.1965,0.1994,0.2026,0.2103,0.2149,0.2222,0.2275,0.234,0.2386,0.2431,0.2483,0.2458,0.2578,0.2545,0.2511,0.2505,0.2338,0.2315,0.2613,0.2613,0.2613,0.2612,0.2612,0,0.1838,0.1851,0.1895,0.1902,0.1936,0.198,0.2034,0.2082,0.2166,0.2227,0.2293,0.2349,0.2425,0.2498,0.2513,0.2557,0.2617,0.2525,0.2527,0.2348,0.2326,0.2527,0.2516,0.2615,0.2614,0.2614,0.2613,0,0.1809,0.1831,0.1853,0.1904,0.1923,0.1951,0.2043,0.2085,0.2175,0.2248,0.228,0.2405,0.2491,0.2553,0.2632,0.2608,0.2636,0.2636,0.241,0.2384,0.2512,0.2503,0.2579,0.2578,0.2576,0.2575,0.2574,0,0.179,0.1799,0.1848,0.1866,0.1889,0.1944,0.1984,0.208,0.2124,0.2273,0.2298,0.2428,0.2475,0.2581,0.2571,0.2583,0.2648,0.2401,0.2302,0.2519,0.2514,0.2507,0.25,0.21,0.2095,0.2091,0.2088,0,0.1763,0.1784,0.1801,0.1834,0.187,0.1915,0.1971,0.2011,0.2114,0.2181,0.227,0.2319,0.2426,0.2352,0.239,0.2368,0.2372,0.232,0.2637,0.2137,0.2072,0.2065,0.2073,0.2053,0.2057,0.2059,0.2061,0.2063,0.1742,0.1742,0.1765,0.1793,0.1838,0.1857,0.1858,0.1917,0.1964,0.2004,0.2121,0.212,0.2169,0.2104,0.2064,0.2047,0.2198,0.2085,0.2095,0.211,0.2041,0.1976,0.1926,0.1929,0.1931,0.1933,0.1935,0,0.1699,0.1705,0.1723,0.1731,0.1742,0.1796,0.1827,0.1791,0.1787,0.1836,0.1862,0.1708,0.1671,0.1744,0.1656,0.1658,0.1625,0.1596,0.153,0.1567,0.1599,0.1501,0.1245,0.1243,0.124,0.1238,0,0,0.1671,0.1648,0.1643,0.1622,0.1646,0.1604,0.1601,0.1565,0.1565,0.149,0.1465,0.1558,0.1661,0.1407,0.1395,0.1304,0.1418,0.1254,0.1811,0.1769,0.1798,0.1892,0.1784,0,0,0,0,0]},{"header":{"parameterUnit":"m.s-1","parameterCategory":2,"la1":30.2991,"la2":30.254,"lo1":-89.0895,"lo2":-89.0444,"dy":0.0017,"dx":0.0017,"nx":28,"ny":28,"refTime":"2025-08-29T21:00:00:Z","depth":"2","parameterNumber":3,"parameterNumberName":"V-component_of_CURRENTS"},"data":[0,0,0,0,0,0,0,0,0,0,0,0,0,0,0,0,0,0,0,0,0,0,0,0,0,0,0,0,0,0,0,0,0,0,0,0,0,0,0,0,0,0,0,0,0,0,0,0,0,0,0,0,0,0,0,0,0,0,0.009,0.0089,0,0.0057,0.0057,0.0056,0.0029,0.0029,0.0029,0.0029,-0.0004,-0.0004,-0.0005,0,0,0,0,0,0,0,0,0,0,0,0,0,0.011,0.011,0.009,0.0089,0.0089,0.0057,0.0057,0.0056,0.003,0.0029,0.0029,0.0029,-0.0004,-0.0004,-0.0005,0,0,0,0,0,0,0,0,0,0,0,0,0,0.0091,0.0109,0.009,0.0072,0.007,0.0057,0.0057,0.0056,0.003,0.0029,0.0029,0.0029,-0.0003,-0.0004,-0.0005,-0.0005,0,0,-0.0008,-0.0009,0,0,0,0,0,0,0,0,0.0092,0.009,0.0075,0.0074,0.0071,0.0048,0.0052,0.0036,0.003,0.0044,0.0029,0.0028,0.0014,0.0012,0.0005,-0.0006,-0.0008,-0.0008,-0.0009,-0.0009,-0.001,0,0,0,0,0,0,0,0.0093,0.0091,0.0076,0.0075,0.0073,0.006,0.0057,0.0049,0.0031,0.0043,0.0041,0.0039,0.0013,0.0006,0.0004,-0.0008,-0.0008,-0.0009,-0.001,-0.001,-0.0023,-0.0023,0,0,0,0,0,0,0.01,0.0093,0.0077,0.0075,0.0082,0.006,0.0056,0.0055,0.0031,0.0027,0.0039,0.0038,0.0008,0.0006,0.0003,0.0008,-0.0009,-0.001,-0.0011,-0.0023,-0.0023,-0.0023,0,0,0,0,0,0,0.0101,0.0099,0.0079,0.0084,0.008,0.006,0.0058,0.0055,0.0048,0.0028,0.0024,0.0037,0.0008,0.0005,-0.0001,0.0006,-0.0011,-0.0012,-0.0024,-0.0023,-0.0023,0.0013,0,0,0,0,0,0,0.0101,0.01,0.01,0.0084,0.008,0.0077,0.0059,0.0054,0.0047,0.0045,0.0025,0.0021,0.0007,0.0001,-0.0002,0.0004,-0.0012,-0.0024,-0.0023,-0.0023,0.0012,0.0015,0.0017,0,0,0,0,0,0.0102,0.0108,0.01,0.0098,0.0082,0.0077,0.0074,0.0058,0.0048,0.005,0.0035,0.0022,0.0002,0.0001,-0.0003,0.0003,-0.0024,-0.0024,-0.0023,0.001,0.0014,0.0017,0,0,0,0,0,0,0.0115,0.0105,0.0096,0.0098,0.009,0.0073,0.0072,0.0061,0.0051,0.0047,0.0027,0.0023,0.0019,0.0007,0.0006,0.0,-0.0014,-0.0014,0.0013,0.0016,0.0019,0.0032,-0.0013,0,0,0,0,0,0.0119,0.012,0.0108,0.0109,0.0107,0.009,0.0085,0.0075,0.0064,0.0058,0.0043,0.0029,0.0019,0.0015,0.0003,0.0003,-0.0008,0.0004,0.0007,0.0009,0.0017,0.0005,0.0007,-0.0021,-0.0021,-0.0021,0,0,0.0124,0.0118,0.0118,0.0111,0.0103,0.0108,0.0086,0.0083,0.0087,0.0057,0.0056,0.0037,0.002,0.0018,0.0015,0.001,0.0011,0.001,0.0012,0.0019,0.0006,0.0009,0.0011,-0.002,-0.002,-0.0021,0,0,0.0139,0.013,0.0139,0.0136,0.0129,0.0121,0.0122,0.0108,0.0102,0.0098,0.0077,0.0065,0.0049,0.0039,0.0032,0.0044,0.0024,0.0038,0.0066,0.0054,0.0056,0.0058,0.0047,0.0047,0.0042,0.0042,0.0042,0,0.0145,0.0154,0.014,0.015,0.0152,0.013,0.0143,0.0135,0.0121,0.0121,0.0103,0.008,0.006,0.0062,0.0063,0.0051,0.0041,0.0055,0.0058,0.006,0.0061,0.0049,0.0049,0.0044,0.0044,0.0044,0.0043,0,0.017,0.0176,0.0182,0.0188,0.0188,0.0195,0.0186,0.0184,0.017,0.0161,0.0155,0.0125,0.0113,0.0101,0.0085,0.0088,0.0076,0.0061,0.0051,0.0066,0.0052,0.0052,0.0047,0.0046,0.0045,0.0045,0,0,0.0188,0.0199,0.0201,0.0213,0.0209,0.0216,0.0222,0.0227,0.0243,0.0213,0.0226,0.0193,0.0173,0.0164,0.0138,0.0125,0.0119,0.0101,0.0099,0.0093,0.0094,0.0073,0.0071,0.0104,0.0104,0.0104,0.008,0,0.0212,0.0242,0.0238,0.0266,0.0282,0.0269,0.0282,0.0282,0.0277,0.0284,0.0247,0.0246,0.0199,0.0195,0.0173,0.0138,0.012,0.0127,0.0077,0.0076,0.0059,0.007,0.0085,0.0064,0.008,0.0079,0.0079,0,0.0239,0.0257,0.0288,0.0314,0.032,0.0333,0.0356,0.0368,0.037,0.0365,0.035,0.032,0.0296,0.0251,0.0195,0.0202,0.0151,0.0116,0.0114,0.0084,0.0055,0.0051,0.0062,0.0078,0.0079,0.0079,0.0079,0,0.0264,0.0294,0.0321,0.0329,0.0352,0.0365,0.0381,0.0393,0.0423,0.0421,0.0434,0.0392,0.0381,0.0311,0.0227,0.0213,0.0166,0.0136,0.0067,0.0065,0.0063,0.0061,0.0091,0.0091,0.0091,0.0091,0.0091,0,0.0292,0.0316,0.0337,0.0355,0.0399,0.0402,0.0454,0.0462,0.0493,0.0542,0.048,0.0505,0.0395,0.0349,0.0259,0.017,0.0187,0.0078,0.006,0.0075,0.0074,0.0074,0.0073,0.009,0.009,0.009,0.0091,0,0.0314,0.0324,0.0364,0.0397,0.0412,0.0446,0.0509,0.0554,0.0567,0.0627,0.0628,0.06,0.054,0.0423,0.0322,0.0222,0.013,0.009,0.0115,0.01,0.0028,0.0028,0.0012,0.0011,0.001,0.0009,0.0009,0,0.0326,0.0348,0.0398,0.0432,0.0448,0.0503,0.0549,0.0588,0.0647,0.0694,0.0733,0.0688,0.0673,0.0509,0.0334,0.017,0.0142,0.0061,0.0027,0.0037,0.0021,0.0022,0.0024,0.0039,0.0039,0.0039,0.0038,0,0.0355,0.0371,0.0406,0.0476,0.0528,0.0599,0.067,0.0728,0.0784,0.0835,0.0903,0.0894,0.073,0.0574,0.033,0.0216,0.0085,0.0051,0.0066,0.0054,0.006,0.0045,0.0046,0.0037,0.0037,0.0037,0.0037,0.0037,0.0377,0.041,0.046,0.0528,0.0594,0.0689,0.0762,0.0847,0.095,0.1027,0.1018,0.0997,0.0806,0.0498,0.0304,0.0083,0.0086,-0.0004,-0.0002,-0.0001,0.0004,0.0008,-0.0024,-0.0024,-0.0024,-0.0024,-0.0024,0,0.0406,0.0447,0.0512,0.06,0.0685,0.0716,0.0842,0.0922,0.105,0.1091,0.1134,0.0941,0.0758,0.0534,0.0211,0.0018,0.0005,-0.0047,-0.0019,-0.0016,-0.0013,-0.0009,-0.004,-0.0041,-0.0041,-0.0042,0,0,0.0423,0.0486,0.0523,0.0661,0.0732,0.0858,0.0937,0.1047,0.1108,0.1152,0.1126,0.1074,0.081,0.0572,0.0321,0.0141,0.0104,0.0102,0.0134,0.02,0.0205,0.0029,0.0041,0,0,0,0,0]}],[{"header":{"parameterUnit":"m.s-1","parameterCategory":2,"la1":30.2991,"la2":30.254,"lo1":-89.0895,"lo2":-89.0444,"dy":0.0017,"dx":0.0017,"nx":28,"ny":28,"refTime":"2025-08-29T21:00:00:Z","depth":"4","parameterNumber":2,"parameterNumberName":"U-component_of_CURRENTS"},"data":[0,0,0,0,0,0,0,0,0,0,0,0,0,0,0,0,0,0,0,0,0,0,0,0,0,0,0,0,0,0,0,0,0,0,0,0,0,0,0,0,0,0,0,0,0,0,0,0,0,0,0,0,0,0,0,0,0,0,0.1039,0.1039,0,0.1077,0.1078,0.1078,0.1115,0.1115,0.1116,0.1116,0.1161,0.1161,0.1162,0,0,0,0,0,0,0,0,0,0,0,0,0,0.1001,0.1001,0.1039,0.1039,0.104,0.1077,0.1078,0.1078,0.1115,0.1115,0.1116,0.1116,0.116,0.1161,0.1162,0,0,0,0,0,0,0,0,0,0,0,0,0,0.1025,0.1001,0.1039,0.1063,0.1066,0.1077,0.1078,0.1078,0.1114,0.1115,0.1116,0.1117,0.116,0.1161,0.1162,0.1153,0,0,0.1165,0.1166,0,0,0,0,0,0,0,0,0.1024,0.1027,0.1059,0.1061,0.1064,0.1093,0.1081,0.1104,0.1114,0.1095,0.1116,0.1117,0.1138,0.1141,0.1146,0.1155,0.1157,0.1165,0.1166,0.1167,0.1167,0,0,0,0,0,0,0,0.1022,0.1025,0.1053,0.1059,0.1063,0.1074,0.1078,0.1085,0.1111,0.1097,0.11,0.1105,0.114,0.1144,0.1147,0.1157,0.1165,0.1166,0.1167,0.1167,0.1217,0.1218,0,0,0,0,0,0,0.1018,0.1024,0.1052,0.1054,0.1047,0.1074,0.1078,0.1082,0.1111,0.1117,0.1104,0.1107,0.1142,0.1146,0.1149,0.1206,0.1167,0.1168,0.1168,0.1217,0.1218,0.1218,0,0,0,0,0,0,0.1017,0.102,0.105,0.1041,0.1045,0.1074,0.1077,0.1083,0.1112,0.1117,0.1123,0.1132,0.1143,0.1147,0.1174,0.1206,0.1168,0.1169,0.1216,0.1217,0.1218,0.1278,0,0,0,0,0,0,0.1016,0.1019,0.1033,0.104,0.1046,0.1075,0.1077,0.1083,0.1113,0.1117,0.1142,0.1145,0.1144,0.1173,0.1175,0.1206,0.117,0.1215,0.1216,0.1218,0.1275,0.1281,0.1286,0,0,0,0,0,0.1014,0.1025,0.1034,0.1038,0.106,0.1076,0.108,0.1102,0.1114,0.1131,0.1146,0.1146,0.1183,0.1174,0.1177,0.1209,0.1214,0.1216,0.1218,0.1273,0.128,0.1286,0,0,0,0,0,0,0.1016,0.103,0.104,0.1055,0.1073,0.1083,0.1103,0.1115,0.114,0.1152,0.1154,0.1159,0.1197,0.1188,0.1179,0.1225,0.1199,0.1201,0.124,0.1247,0.1252,0.1234,0.1171,0,0,0,0,0,0.1021,0.1037,0.1049,0.1066,0.1076,0.1094,0.1109,0.1124,0.114,0.1154,0.1169,0.1184,0.12,0.1213,0.1224,0.1247,0.1244,0.1268,0.1274,0.1278,0.1265,0.1294,0.1301,0.1224,0.1224,0.1224,0,0,0.1027,0.1038,0.1048,0.1069,0.1085,0.1101,0.1106,0.1136,0.1153,0.1153,0.119,0.1208,0.1211,0.1242,0.1258,0.1243,0.1302,0.128,0.1285,0.1268,0.1297,0.1304,0.1311,0.1225,0.1225,0.1224,0,0,0.1038,0.1057,0.1072,0.1088,0.1118,0.1126,0.114,0.1164,0.1183,0.1214,0.1223,0.1251,0.1277,0.1284,0.1289,0.1327,0.1333,0.1343,0.1357,0.1387,0.1393,0.1399,0.1421,0.1428,0.1343,0.1343,0.1343,0,0.1049,0.1063,0.1081,0.1099,0.1115,0.1139,0.1157,0.1175,0.1207,0.1224,0.1234,0.1282,0.129,0.1321,0.1335,0.134,0.1358,0.1336,0.1395,0.14,0.1405,0.1426,0.1433,0.1346,0.1346,0.1346,0.1345,0,0.1061,0.1084,0.1096,0.1123,0.1144,0.1166,0.1188,0.1218,0.1245,0.1262,0.1311,0.1326,0.1353,0.1368,0.1362,0.1406,0.1409,0.1404,0.1381,0.1417,0.1436,0.1443,0.1351,0.135,0.1349,0.1348,0,0,0.1053,0.1096,0.1103,0.1118,0.1159,0.1172,0.121,0.124,0.1264,0.1308,0.1339,0.1375,0.1397,0.1402,0.1415,0.1433,0.149,0.1436,0.1436,0.1461,0.1563,0.1468,0.1466,0.151,0.1511,0.1512,0.1568,0,0.106,0.1091,0.1113,0.1145,0.1161,0.1196,0.1219,0.1256,0.1293,0.133,0.1362,0.1402,0.1408,0.1436,0.1459,0.1485,0.1507,0.1474,0.1519,0.152,0.1434,0.147,0.1515,0.1573,0.1574,0.1575,0.1576,0,0.1059,0.1081,0.1114,0.1149,0.1159,0.1185,0.1232,0.1261,0.1315,0.1348,0.1402,0.1431,0.148,0.1473,0.1541,0.1529,0.1546,0.1556,0.1559,0.1446,0.1435,0.1524,0.1587,0.1586,0.1586,0.1585,0.1584,0,0.1031,0.1077,0.1102,0.1117,0.1163,0.119,0.1219,0.1274,0.1302,0.1374,0.1409,0.147,0.1518,0.1551,0.1592,0.158,0.1652,0.1638,0.1564,0.1558,0.1601,0.1594,0.1668,0.1668,0.1668,0.1668,0.1668,0,0.1013,0.1035,0.1096,0.1108,0.1137,0.118,0.1221,0.126,0.1321,0.1352,0.1425,0.146,0.1543,0.1596,0.1611,0.1614,0.168,0.1562,0.1564,0.1627,0.1622,0.1607,0.1599,0.167,0.167,0.1669,0.1669,0,0.0974,0.1016,0.1046,0.1104,0.1126,0.1151,0.1221,0.1243,0.1315,0.1363,0.1393,0.1483,0.1552,0.1616,0.1677,0.1636,0.1645,0.1626,0.1698,0.1704,0.1523,0.1518,0.1537,0.1534,0.1531,0.1529,0.1527,0,0.0952,0.0967,0.1037,0.1054,0.1086,0.1135,0.116,0.1236,0.126,0.136,0.1368,0.1471,0.1522,0.154,0.1609,0.1639,0.1617,0.1607,0.154,0.1508,0.1509,0.1508,0.1506,0.1523,0.1523,0.1522,0.1521,0,0.0906,0.0945,0.0965,0.1002,0.1038,0.1067,0.1113,0.1125,0.1205,0.1291,0.1317,0.1353,0.1425,0.1478,0.1524,0.1535,0.1602,0.158,0.1584,0.1521,0.1492,0.1495,0.1497,0.1513,0.1514,0.1515,0.1515,0,0.0872,0.0872,0.0904,0.0927,0.0967,0.097,0.1011,0.1038,0.1076,0.1188,0.12,0.1306,0.1408,0.1424,0.1461,0.1476,0.1442,0.1378,0.1391,0.1402,0.1331,0.1273,0.1225,0,0,0,0,0,0.0829,0.0812,0.0822,0.0829,0.0864,0.089,0.0955,0.0999,0.1092,0.108,0.1134,0.1192,0.1245,0.1303,0.1292,0.1398,0.1447,0.1376,0.1379,0.1465,0.1475,0.1404,0,0,0,0,0,0,0.0794,0.0798,0.0789,0.0743,0.0734,0.0757,0.0801,0.0867,0.0867,0.0977,0.1022,0.1107,0.1191,0.1243,0.1265,0.1284,0.1256,0.1451,0.1447,0.1459,0.1468,0.1476,0.1407,0,0,0,0,0]},{"header":{"parameterUnit":"m.s-1","parameterCategory":2,"la1":30.2991,"la2":30.254,"lo1":-89.0895,"lo2":-89.0444,"dy":0.0017,"dx":0.0017,"nx":28,"ny":28,"refTime":"2025-08-29T21:00:00:Z","depth":"4","parameterNumber":3,"parameterNumberName":"V-component_of_CURRENTS"},"data":[0,0,0,0,0,0,0,0,0,0,0,0,0,0,0,0,0,0,0,0,0,0,0,0,0,0,0,0,0,0,0,0,0,0,0,0,0,0,0,0,0,0,0,0,0,0,0,0,0,0,0,0,0,0,0,0,0,0,0.0115,0.0115,0,0.01,0.01,0.01,0.0092,0.0092,0.0092,0.0092,0.008,0.008,0.008,0,0,0,0,0,0,0,0,0,0,0,0,0,0.0123,0.0123,0.0115,0.0115,0.0115,0.01,0.01,0.01,0.0092,0.0092,0.0092,0.0092,0.008,0.008,0.008,0,0,0,0,0,0,0,0,0,0,0,0,0,0.0115,0.0123,0.0115,0.0109,0.0108,0.01,0.01,0.01,0.0092,0.0092,0.0092,0.0092,0.0081,0.008,0.008,0.0077,0,0,0.0078,0.0078,0,0,0,0,0,0,0,0,0.0115,0.0115,0.011,0.0109,0.0109,0.0098,0.0099,0.0092,0.0092,0.0098,0.0092,0.0092,0.0087,0.0086,0.0083,0.0076,0.0076,0.0078,0.0078,0.0078,0.0078,0,0,0,0,0,0,0,0.0116,0.0115,0.0109,0.011,0.0109,0.0103,0.0102,0.0097,0.0093,0.0098,0.0097,0.0096,0.0086,0.0083,0.0082,0.0076,0.0078,0.0078,0.0078,0.0077,0.0066,0.0066,0,0,0,0,0,0,0.0119,0.0116,0.011,0.0109,0.0112,0.0103,0.0101,0.0101,0.0093,0.0091,0.0096,0.0095,0.0084,0.0083,0.0082,0.0086,0.0078,0.0077,0.0077,0.0066,0.0066,0.0066,0,0,0,0,0,0,0.0119,0.0118,0.011,0.0112,0.011,0.0103,0.0103,0.0101,0.01,0.0091,0.009,0.0097,0.0084,0.0083,0.0081,0.0085,0.0077,0.0077,0.0066,0.0066,0.0066,0.0089,0,0,0,0,0,0,0.0119,0.0119,0.012,0.0112,0.011,0.0109,0.0103,0.0101,0.0099,0.0099,0.0091,0.009,0.0084,0.0082,0.0081,0.0084,0.0076,0.0066,0.0066,0.0066,0.0088,0.009,0.0091,0,0,0,0,0,0.012,0.0124,0.012,0.0119,0.0112,0.0109,0.0108,0.0102,0.0099,0.0101,0.0096,0.009,0.0081,0.0082,0.008,0.0084,0.0066,0.0066,0.0066,0.0088,0.009,0.0091,0,0,0,0,0,0,0.0127,0.0123,0.0119,0.0121,0.0116,0.0108,0.0109,0.0104,0.0101,0.0101,0.0092,0.0091,0.0089,0.0083,0.0084,0.0079,0.0072,0.0071,0.0089,0.009,0.0092,0.0104,0.0076,0,0,0,0,0,0.013,0.0132,0.0125,0.0126,0.0126,0.0117,0.0115,0.0111,0.0107,0.0105,0.0099,0.0093,0.0087,0.0086,0.008,0.008,0.0067,0.008,0.0081,0.0082,0.0091,0.0074,0.0075,0.0066,0.0066,0.0066,0,0,0.0133,0.013,0.0132,0.0128,0.0124,0.0128,0.0116,0.0116,0.012,0.0104,0.0109,0.0098,0.0088,0.0087,0.0086,0.0083,0.0076,0.0082,0.0084,0.0091,0.0074,0.0075,0.0076,0.0066,0.0066,0.0066,0,0,0.0142,0.0139,0.0145,0.0144,0.014,0.0136,0.0137,0.013,0.0129,0.0128,0.0118,0.0112,0.0104,0.0099,0.0095,0.01,0.0083,0.0095,0.0114,0.0098,0.0098,0.0099,0.0076,0.0074,0.0097,0.0097,0.0097,0,0.0146,0.0153,0.0146,0.0152,0.0155,0.0142,0.0151,0.0147,0.0141,0.0144,0.0133,0.0121,0.0111,0.0113,0.0113,0.0104,0.0089,0.011,0.01,0.01,0.0101,0.0077,0.0075,0.0098,0.0098,0.0098,0.0098,0,0.0161,0.0167,0.0171,0.0176,0.0178,0.0183,0.0178,0.0179,0.0173,0.017,0.0168,0.0149,0.0145,0.0135,0.0127,0.0124,0.0111,0.0103,0.0098,0.0103,0.0077,0.0075,0.01,0.0099,0.0099,0.0099,0,0,0.0169,0.018,0.0182,0.0192,0.0192,0.0198,0.0204,0.021,0.0224,0.0205,0.0214,0.0196,0.0185,0.018,0.0163,0.0147,0.0129,0.0129,0.0127,0.0109,0.0086,0.0071,0.0067,0.0119,0.0118,0.0118,0.0065,0,0.0184,0.0204,0.0204,0.0227,0.0238,0.0234,0.0246,0.0249,0.0248,0.0253,0.0228,0.023,0.0203,0.0201,0.018,0.0146,0.0124,0.0144,0.0081,0.0079,0.0069,0.0064,0.0118,0.0063,0.0062,0.0062,0.0061,0,0.0198,0.0212,0.0236,0.0261,0.0266,0.0279,0.0301,0.0311,0.0313,0.0311,0.0302,0.0282,0.026,0.0233,0.0173,0.0187,0.0141,0.0107,0.0104,0.0083,0.006,0.0058,0.0056,0.0057,0.0057,0.0057,0.0058,0,0.0212,0.0236,0.0258,0.0265,0.0288,0.0303,0.0319,0.0332,0.0354,0.0352,0.036,0.0326,0.0313,0.0252,0.0179,0.0177,0.0106,0.0093,0.0034,0.0032,0.0051,0.0051,0.0048,0.0048,0.0049,0.0049,0.0049,0,0.0225,0.0245,0.027,0.0283,0.0321,0.033,0.0374,0.0381,0.0404,0.0433,0.0396,0.04,0.0318,0.0266,0.0192,0.0105,0.0113,0.0038,0.0019,0.006,0.0062,0.0049,0.0049,0.0047,0.0047,0.0048,0.0048,0,0.0233,0.0247,0.0279,0.0313,0.0328,0.0358,0.0415,0.045,0.0461,0.0493,0.0494,0.0458,0.0389,0.0296,0.0197,0.0128,0.0042,0.0008,0.0056,0.0041,-0.0026,-0.0024,-0.0062,-0.0063,-0.0064,-0.0065,-0.0065,0,0.0237,0.0254,0.0303,0.0332,0.035,0.04,0.0442,0.0476,0.0514,0.0528,0.0542,0.0489,0.0447,0.03,0.0195,0.0047,0.0024,-0.0027,-0.0026,-0.0022,-0.0037,-0.0033,-0.0029,-0.0067,-0.0067,-0.0067,-0.0067,0,0.0247,0.0265,0.0294,0.0357,0.0405,0.0465,0.0522,0.0553,0.059,0.0595,0.0587,0.0508,0.0426,0.0306,0.0189,0.0082,0.0003,-0.0035,-0.0035,-0.0034,-0.0027,-0.004,-0.0036,-0.007,-0.0069,-0.0069,-0.0069,0,0.0254,0.0278,0.0322,0.038,0.0444,0.0511,0.0542,0.0586,0.0622,0.063,0.0624,0.0533,0.0483,0.0323,0.0217,0.0108,0.0077,0.0037,0.0033,0.0035,0.0075,0.0098,0.008,0,0,0,0,0,0.0259,0.0293,0.0346,0.0412,0.0478,0.0519,0.0589,0.0617,0.0644,0.0645,0.0638,0.056,0.0404,0.0341,0.0231,0.019,0.005,0.0055,0.0,-0.0085,-0.0082,-0.0053,0,0,0,0,0,0,0.0264,0.031,0.0344,0.0431,0.0481,0.056,0.0608,0.0629,0.0632,0.0636,0.0562,0.052,0.0375,0.0466,0.0225,0.0191,0.0138,-0.0017,-0.002,-0.0087,-0.0084,-0.0081,-0.005,0,0,0,0,0]}]]